User: anonymous   Login
Location: Unspecified
(0.0000°N, 0.0000°E)
Time: 03:28:22
(UTC+02:00)
Language:

Coronas F rocket - Orbit

View from above orbital plane
View from above orbital plane
View from above satellite
View from above satellite

Ground track
Ground track

The orbit data is extracted from the following two-line orbital elements,

1 26874U 01032B   17086.90863714 +.00235466 +25003-4 +25320-3 0  9998
2 26874 082.4476 326.2154 0003944 162.0907 198.0516 16.09991215880760
Epoch (UTC): 27 March 2017 21:48:26
Eccentricity: 0.0003944
inclination: 82.4476°
perigee height: 244 km
apogee height: 249 km
right ascension of ascending node: 326.2154°
argument of perigee: 162.0907°
revolutions per day: 16.09991215
mean anomaly at epoch: 198.0516°
orbit number at epoch: 88076

The dashed part of the orbit path shows where the satellite is in the earth's shadow,  

DLR